Station Historical Data
Daily Summary for December 7, 2017 Units:  Metric    English   Both
« Previous Day
Next Day »
Daily Weekly Monthly Yearly Custom
  High: Low: Average:
Temperature: 1 °C -3.1 °C -0.3 °C
Dew Point: -4.4 °C -9.9 °C -6.3 °C
Humidity: 73% 56% 64%
Wind Speed: 27.4km/h 0km/h 9.2km/h
Wind Gust: 30.6km/h - -
Wind- - West
Pressure: 1016.1 hPa 1012.4 hPa -
Precipitation: 0.25 mm    
Historical Graphs
 
 
Tabular Data for December 7, 2017
Time Temperature Dew Point Pressure Wind Wind Speed Wind Gust Humidity Rainfall Rate (Hourly)
00:00 1 °C -5.7 °C 1012.8 hPa SW 11.3 km/h 25.7 km/h 61% 0 mm
00:05 1 °C -5.7 °C 1012.8 hPa NW 16.1 km/h 22.5 km/h 61% 0 mm
00:10 1 °C -5.7 °C 1012.8 hPa West 11.3 km/h 24.1 km/h 61% 0 mm
00:15 1 °C -5.7 °C 1012.8 hPa SW 16.1 km/h 19.3 km/h 61% 0 mm
00:20 1 °C -5.7 °C 1012.8 hPa West 8 km/h 27.4 km/h 61% 0 mm
00:25 1 °C -5.7 °C 1012.8 hPa West 12.9 km/h 27.4 km/h 61% 0 mm
00:30 1 °C -5.5 °C 1012.8 hPa West 11.3 km/h 22.5 km/h 62% 0 mm
00:35 0.9 °C -5.5 °C 1012.4 hPa West 11.3 km/h 22.5 km/h 62% 0 mm
00:40 0.9 °C -5.7 °C 1012.8 hPa West 11.3 km/h 22.5 km/h 61% 0 mm
00:45 0.9 °C -5.7 °C 1012.8 hPa West 9.7 km/h 19.3 km/h 61% 0 mm
00:50 0.9 °C -5.7 °C 1012.8 hPa West 14.5 km/h 24.1 km/h 61% 0 mm
00:55 0.9 °C -5.7 °C 1012.8 hPa WSW 4.8 km/h 20.9 km/h 61% 0 mm
01:00 0.9 °C -5.8 °C 1012.8 hPa West 9.7 km/h 20.9 km/h 61% 0 mm
01:05 0.9 °C -5.8 °C 1012.8 hPa WSW 14.5 km/h 22.5 km/h 61% 0 mm
01:10 0.8 °C -5.6 °C 1012.8 hPa West 11.3 km/h 17.7 km/h 62% 0 mm
01:15 0.8 °C -5.7 °C 1012.8 hPa WSW 9.7 km/h 20.9 km/h 62% 0 mm
01:20 0.8 °C -5.7 °C 1013.1 hPa WSW 8 km/h 25.7 km/h 62% 0 mm
01:25 0.8 °C -5.7 °C 1012.8 hPa West 8 km/h 20.9 km/h 62% 0 mm
01:30 0.8 °C -5.7 °C 1013.1 hPa WSW 9.7 km/h 24.1 km/h 62% 0 mm
01:35 0.8 °C -5.7 °C 1013.1 hPa West 11.3 km/h 29 km/h 62% 0 mm
01:40 0.7 °C -5.7 °C 1013.1 hPa West 11.3 km/h 29 km/h 62% 0 mm
01:45 0.7 °C -5.7 °C 1013.1 hPa West 9.7 km/h 24.1 km/h 62% 0 mm
01:50 0.7 °C -5.6 °C 1013.1 hPa West 8 km/h 19.3 km/h 63% 0 mm
01:55 0.7 °C -5.6 °C 1013.1 hPa West 9.7 km/h 24.1 km/h 63% 0 mm
02:00 0.6 °C -5.6 °C 1013.1 hPa NW 8 km/h 25.7 km/h 63% 0 mm
02:05 0.6 °C -5.6 °C 1013.1 hPa West 12.9 km/h 25.7 km/h 63% 0 mm
02:10 0.6 °C -5.7 °C 1013.4 hPa West 12.9 km/h 25.7 km/h 63% 0 mm
02:15 0.6 °C -5.7 °C 1013.4 hPa West 12.9 km/h 25.7 km/h 63% 0 mm
02:20 0.6 °C -5.5 °C 1013.4 hPa West 14.5 km/h 22.5 km/h 64% 0 mm
02:25 0.6 °C -5.5 °C 1013.4 hPa NW 9.7 km/h 22.5 km/h 64% 0 mm
02:30 0.5 °C -5.6 °C 1013.4 hPa West 17.7 km/h 24.1 km/h 64% 0 mm
02:35 0.4 °C -5.6 °C 1013.4 hPa WSW 16.1 km/h 19.3 km/h 64% 0 mm
02:40 0.4 °C -5.6 °C 1013.4 hPa West 11.3 km/h 20.9 km/h 64% 0 mm
02:45 0.4 °C -5.6 °C 1013.4 hPa West 9.7 km/h 20.9 km/h 64% 0 mm
02:50 0.4 °C -5.6 °C 1013.4 hPa West 11.3 km/h 25.7 km/h 64% 0 mm
02:55 0.4 °C -5.6 °C 1013.4 hPa West 16.1 km/h 25.7 km/h 64% 0 mm
03:00 0.3 °C -5.7 °C 1013.4 hPa West 12.9 km/h 25.7 km/h 64% 0 mm
03:05 0.3 °C -5.7 °C 1013.4 hPa West 12.9 km/h 24.1 km/h 64% 0 mm
03:10 0.3 °C -5.7 °C 1013.4 hPa WNW 6.4 km/h 20.9 km/h 64% 0 mm
03:15 0.3 °C -5.7 °C 1013.4 hPa West 11.3 km/h 20.9 km/h 64% 0 mm
03:20 0.3 °C -5.7 °C 1013.4 hPa West 9.7 km/h 14.5 km/h 64% 0 mm
03:25 0.3 °C -5.7 °C 1013.4 hPa WSW 9.7 km/h 20.9 km/h 64% 0 mm
03:30 0.3 °C -5.7 °C 1013.4 hPa West 6.4 km/h 14.5 km/h 64% 0 mm
03:35 0.3 °C -5.6 °C 1013.4 hPa West 9.7 km/h 14.5 km/h 65% 0 mm
03:40 0.2 °C -5.8 °C 1013.4 hPa West 8 km/h 17.7 km/h 64% 0 mm
03:45 0.2 °C -5.6 °C 1013.4 hPa West 8 km/h 16.1 km/h 65% 0 mm
03:50 0.2 °C -5.6 °C 1013.4 hPa West 8 km/h 16.1 km/h 65% 0 mm
03:55 0.2 °C -5.6 °C 1013.4 hPa West 8 km/h 17.7 km/h 65% 0 mm
04:00 0.2 °C -5.6 °C 1013.4 hPa West 8 km/h 17.7 km/h 65% 0 mm
04:05 0.2 °C -5.7 °C 1013.4 hPa West 9.7 km/h 19.3 km/h 65% 0 mm
04:10 0.2 °C -5.6 °C 1013.4 hPa West 4.8 km/h 11.3 km/h 65% 0 mm
04:15 0.2 °C -5.8 °C 1013.4 hPa WNW 8 km/h 16.1 km/h 64% 0 mm
04:20 0.2 °C -5.6 °C 1013.4 hPa WNW 12.9 km/h 17.7 km/h 65% 0 mm
04:25 0.2 °C -5.8 °C 1013.1 hPa West 9.7 km/h 17.7 km/h 64% 0 mm
04:30 0.2 °C -5.8 °C 1013.1 hPa WNW 4.8 km/h 12.9 km/h 64% 0 mm
04:40 0.2 °C -5.6 °C 1013.1 hPa WNW 8 km/h 14.5 km/h 65% 0 mm
04:45 0.2 °C -5.7 °C 1013.1 hPa West 6.4 km/h 14.5 km/h 65% 0 mm
04:50 0.2 °C -5.7 °C 1013.1 hPa West 3.2 km/h 11.3 km/h 65% 0 mm
04:55 0.2 °C -5.7 °C 1013.1 hPa West 6.4 km/h 16.1 km/h 65% 0 mm
05:00 0.2 °C -5.7 °C 1013.1 hPa West 6.4 km/h 16.1 km/h 65% 0 mm
05:05 0.2 °C -5.7 °C 1013.1 hPa West 3.2 km/h 16.1 km/h 65% 0 mm
05:10 0.2 °C -5.7 °C 1013.1 hPa West 6.4 km/h 16.1 km/h 65% 0 mm
05:15 0.2 °C -5.7 °C 1013.1 hPa West 6.4 km/h 14.5 km/h 65% 0 mm
05:20 0.1 °C -5.5 °C 1013.1 hPa West 3.2 km/h 11.3 km/h 66% 0 mm
05:25 0.1 °C -5.5 °C 1013.1 hPa West 6.4 km/h 17.7 km/h 66% 0 mm
05:30 0.1 °C -5.7 °C 1013.1 hPa West 11.3 km/h 17.7 km/h 65% 0 mm
05:35 0.1 °C -5.5 °C 1013.1 hPa WSW 4.8 km/h 19.3 km/h 66% 0 mm
05:40 0.1 °C -5.5 °C 1013.1 hPa West 4.8 km/h 16.1 km/h 66% 0 mm
05:45 0.1 °C -5.6 °C 1013.1 hPa West 8 km/h 14.5 km/h 66% 0 mm
05:50 0.1 °C -5.5 °C 1013.1 hPa West 4.8 km/h 17.7 km/h 66% 0 mm
05:55 0.1 °C -5.6 °C 1013.1 hPa West 12.9 km/h 14.5 km/h 66% 0 mm
06:00 0.1 °C -5.6 °C 1013.1 hPa WNW 8 km/h 16.1 km/h 66% 0 mm
06:05 0.1 °C -5.6 °C 1013.1 hPa NW 3.2 km/h 14.5 km/h 66% 0 mm
06:10 0.1 °C -5.6 °C 1013.1 hPa WNW 8 km/h 14.5 km/h 66% 0 mm
06:15 0.1 °C -5.3 °C 1013.1 hPa WNW 8 km/h 20.9 km/h 67% 0 mm
06:20 0.1 °C -5.3 °C 1013.1 hPa WNW 8 km/h 20.9 km/h 67% 0 mm
06:25 0.1 °C -5.3 °C 1013.1 hPa West 11.3 km/h 17.7 km/h 67% 0 mm
06:30 0.1 °C -5.3 °C 1013.1 hPa West 6.4 km/h 14.5 km/h 67% 0 mm
06:35 0.1 °C -5.3 °C 1013.1 hPa West 6.4 km/h 14.5 km/h 67% 0 mm
06:40 0.1 °C -5.6 °C 1013.1 hPa West 8 km/h 16.1 km/h 66% 0 mm
06:45 0.1 °C -5.3 °C 1013.1 hPa West 8 km/h 17.7 km/h 67% 0 mm
06:50 0.1 °C -5.5 °C 1013.1 hPa WNW 8 km/h 17.7 km/h 66% 0 mm
06:55 0.1 °C -5.3 °C 1013.1 hPa NW 8 km/h 20.9 km/h 67% 0 mm
07:00 0.1 °C -5.3 °C 1013.1 hPa West 6.4 km/h 14.5 km/h 67% 0 mm
07:05 0.1 °C -5.6 °C 1013.1 hPa WNW 3.2 km/h 12.9 km/h 66% 0 mm
07:10 0.1 °C -5.3 °C 1013.1 hPa West 6.4 km/h 12.9 km/h 67% 0 mm
07:15 0.1 °C -5.3 °C 1013.1 hPa West 6.4 km/h 16.1 km/h 67% 0 mm
07:20 0.1 °C -5.3 °C 1013.1 hPa WSW 4.8 km/h 11.3 km/h 67% 0 mm
07:25 0.1 °C -5.3 °C 1013.1 hPa West 4.8 km/h 11.3 km/h 67% 0 mm
07:30 0.1 °C -5.3 °C 1013.4 hPa WSW 6.4 km/h 11.3 km/h 67% 0 mm
07:35 0.1 °C -5.6 °C 1013.4 hPa SW 9.7 km/h 12.9 km/h 66% 0 mm
07:45 0.1 °C -5.3 °C 1013.4 hPa SW 3.2 km/h 12.9 km/h 67% 0 mm
07:50 0.1 °C -5.3 °C 1013.4 hPa SSW 4.8 km/h 9.7 km/h 67% 0 mm
08:00 0.1 °C -5.2 °C 1013.4 hPa SSW 4.8 km/h 14.5 km/h 68% 0 mm
08:05 0.1 °C -5.3 °C 1013.4 hPa WSW 3.2 km/h 9.7 km/h 67% 0 mm
08:10 0.1 °C -5.2 °C 1013.8 hPa SW 4.8 km/h 8 km/h 68% 0 mm
08:15 0.1 °C -5.3 °C 1013.4 hPa SW 4.8 km/h 14.5 km/h 67% 0 mm
08:20 0.1 °C -5.3 °C 1013.8 hPa SW 6.4 km/h 14.5 km/h 67% 0 mm
08:30 0.1 °C -5.1 °C 1013.8 hPa WSW 3.2 km/h 12.9 km/h 68% 0 mm
08:35 0.2 °C -5.2 °C 1013.8 hPa WSW 6.4 km/h 16.1 km/h 67% 0 mm
08:40 0.2 °C -5.2 °C 1013.8 hPa WNW 8 km/h 14.5 km/h 67% 0 mm
08:45 0.2 °C -5.2 °C 1013.8 hPa WSW 4.8 km/h 14.5 km/h 67% 0 mm
08:55 0.2 °C -5.2 °C 1013.8 hPa WSW 6.4 km/h 14.5 km/h 67% 0 mm
09:00 0.2 °C -5.2 °C 1014.1 hPa WSW 4.8 km/h 11.3 km/h 67% 0 mm
09:10 0.1 °C -5.1 °C 1014.1 hPa Calm   6.4 km/h 68% 0 mm
09:15 0.1 °C -5.1 °C 1014.1 hPa WSW 1.6 km/h 9.7 km/h 68% 0 mm
09:20 0.1 °C -5.1 °C 1014.1 hPa WSW 4.8 km/h 9.7 km/h 68% 0 mm
09:30 0.1 °C -4.9 °C 1014.1 hPa West 4.8 km/h 14.5 km/h 69% 0 mm
09:35 0.1 °C -4.9 °C 1014.1 hPa West 6.4 km/h 12.9 km/h 69% 0 mm
09:40 0 °C -4.8 °C 1014.4 hPa WSW 8 km/h 14.5 km/h 70% 0 mm
09:50 -0.1 °C -4.7 °C 1014.1 hPa SW 6.4 km/h 12.9 km/h 71% 0 mm
09:55 -0.1 °C -4.7 °C 1014.1 hPa WSW 8 km/h 12.9 km/h 71% 0 mm
10:05 -0.1 °C -4.5 °C 1014.1 hPa WSW 6.4 km/h 12.9 km/h 72% 0 mm
10:10 -0.1 °C -4.5 °C 1014.1 hPa WSW 6.4 km/h 12.9 km/h 72% 0 mm
10:20 -0.1 °C -4.6 °C 1014.4 hPa WSW 11.3 km/h 16.1 km/h 72% 0 mm
10:30 -0.2 °C -4.6 °C 1014.4 hPa WSW 8 km/h 16.1 km/h 72% 0 mm
10:45 -0.2 °C -4.4 °C 1014.4 hPa West 6.4 km/h 14.5 km/h 73% 0 mm
10:55 -0.1 °C -4.6 °C 1014.4 hPa NW 4.8 km/h 11.3 km/h 72% 0 mm
11:00 0 °C -4.4 °C 1014.4 hPa West 8 km/h 11.3 km/h 72% 0 mm
11:05 -0.1 °C -4.5 °C 1014.1 hPa WSW 8 km/h 17.7 km/h 72% 0 mm
11:15 -0.1 °C -4.6 °C 1014.1 hPa SW 4.8 km/h 16.1 km/h 72% 0 mm
11:20 -0.2 °C -4.8 °C 1014.1 hPa WSW 8 km/h 16.1 km/h 71% 0 mm
11:25 -0.1 °C -4.7 °C 1014.1 hPa WSW 8 km/h 19.3 km/h 71% 0 mm
11:30 -0.1 °C -4.7 °C 1014.1 hPa West 4.8 km/h 14.5 km/h 71% 0 mm
11:35 0 °C -4.6 °C 1013.8 hPa Calm   14.5 km/h 71% 0 mm
11:40 0.1 °C -4.7 °C 1013.8 hPa West 6.4 km/h 16.1 km/h 70% 0 mm
11:45 0.2 °C -4.5 °C 1013.8 hPa West 3.2 km/h 11.3 km/h 71% 0 mm
11:50 0.2 °C -4.7 °C 1013.4 hPa West 8 km/h 17.7 km/h 70% 0.25 mm
11:55 0.1 °C -4.7 °C 1013.4 hPa WNW 12.9 km/h 16.1 km/h 70% 0.25 mm
12:05 0.1 °C -4.7 °C 1013.4 hPa West 9.7 km/h 14.5 km/h 70% 0.25 mm
12:10 0.2 °C -4.7 °C 1013.4 hPa SW 4.8 km/h 11.3 km/h 70% 0.25 mm
12:15 0.1 °C -4.7 °C 1013.4 hPa West 6.4 km/h 22.5 km/h 70% 0.25 mm
12:20 0.1 °C -4.8 °C 1013.4 hPa WSW 8 km/h 22.5 km/h 70% 0.25 mm
12:25 0.1 °C -4.9 °C 1013.1 hPa WSW 9.7 km/h 17.7 km/h 69% 0.25 mm
12:30 0.2 °C -4.8 °C 1013.1 hPa West 9.7 km/h 17.7 km/h 69% 0.25 mm
12:35 0.2 °C -4.7 °C 1013.1 hPa West 8 km/h 16.1 km/h 70% 0.25 mm
12:40 0.2 °C -4.8 °C 1013.1 hPa West 9.7 km/h 17.7 km/h 69% 0.25 mm
12:45 0.2 °C -4.8 °C 1013.1 hPa WNW 6.4 km/h 17.7 km/h 69% 0.25 mm
12:55 0.2 °C -5 °C 1012.8 hPa West 9.7 km/h 20.9 km/h 68% 0 mm
13:10 0.6 °C -5.3 °C 1012.8 hPa West 11.3 km/h 22.5 km/h 65% 0 mm
13:15 0.7 °C -5.4 °C 1012.8 hPa West 12.9 km/h 20.9 km/h 64% 0 mm
13:20 0.5 °C -5.6 °C 1012.8 hPa West 9.7 km/h 24.1 km/h 64% 0 mm
13:25 0.5 °C -5.7 °C 1012.8 hPa West 11.3 km/h 24.1 km/h 63% 0 mm
13:30 0.6 °C -5.5 °C 1012.8 hPa West 9.7 km/h 20.9 km/h 64% 0 mm
13:40 0.4 °C -5.4 °C 1012.8 hPa West 6.4 km/h 14.5 km/h 65% 0 mm
13:45 0.4 °C -5.4 °C 1012.8 hPa West 3.2 km/h 12.9 km/h 65% 0 mm
13:50 0.4 °C -5.8 °C 1012.8 hPa West 8 km/h 22.5 km/h 63% 0 mm
13:55 0.3 °C -6.1 °C 1012.8 hPa West 9.7 km/h 24.1 km/h 62% 0 mm
14:00 0.3 °C -5.9 °C 1012.8 hPa West 9.7 km/h 24.1 km/h 63% 0 mm
14:05 0.2 °C -5.8 °C 1012.8 hPa WNW 11.3 km/h 20.9 km/h 64% 0 mm
14:10 0.2 °C -5.8 °C 1012.8 hPa WNW 19.3 km/h 19.3 km/h 64% 0 mm
14:25 0.6 °C -6.6 °C 1012.4 hPa West 14.5 km/h 22.5 km/h 59% 0 mm
14:40 0.3 °C -6.6 °C 1012.8 hPa West 11.3 km/h 24.1 km/h 60% 0 mm
14:45 0.2 °C -6.9 °C 1012.8 hPa West 11.3 km/h 22.5 km/h 59% 0 mm
14:50 0.1 °C -6.9 °C 1012.8 hPa WSW 8 km/h 19.3 km/h 59% 0 mm
14:55 0.1 °C -7.2 °C 1012.8 hPa NW 12.9 km/h 30.6 km/h 58% 0 mm
15:00 -0.1 °C -7.4 °C 1012.8 hPa West 12.9 km/h 30.6 km/h 58% 0 mm
15:05 -0.2 °C -7.2 °C 1013.1 hPa West 14.5 km/h 29 km/h 59% 0 mm
15:10 -0.2 °C -7.3 °C 1013.1 hPa West 12.9 km/h 29 km/h 59% 0 mm
15:15 -0.3 °C -7.3 °C 1013.1 hPa West 11.3 km/h 16.1 km/h 59% 0 mm
15:20 -0.3 °C -7.2 °C 1013.1 hPa WNW 11.3 km/h 17.7 km/h 60% 0 mm
15:25 -0.3 °C -7.2 °C 1013.1 hPa WNW 4.8 km/h 14.5 km/h 60% 0 mm
15:35 -0.3 °C -7.2 °C 1013.1 hPa West 12.9 km/h 17.7 km/h 60% 0 mm
15:40 -0.3 °C -7.2 °C 1013.1 hPa West 8 km/h 20.9 km/h 60% 0 mm
15:50 -0.3 °C -7.4 °C 1013.4 hPa West 8 km/h 25.7 km/h 59% 0 mm
15:55 -0.4 °C -7.2 °C 1013.4 hPa West 11.3 km/h 25.7 km/h 60% 0 mm
16:00 -0.4 °C -7.5 °C 1013.4 hPa WNW 17.7 km/h 27.4 km/h 59% 0 mm
16:10 -0.5 °C -7.6 °C 1013.4 hPa West 12.9 km/h 27.4 km/h 59% 0 mm
16:15 -0.6 °C -7.6 °C 1013.4 hPa West 12.9 km/h 27.4 km/h 59% 0 mm
16:25 -0.7 °C -7.3 °C 1013.4 hPa WNW 12.9 km/h 25.7 km/h 61% 0 mm
16:30 -0.8 °C -7.4 °C 1013.4 hPa West 4.8 km/h 20.9 km/h 61% 0 mm
16:35 -0.8 °C -7.4 °C 1013.4 hPa West 8 km/h 20.9 km/h 61% 0 mm
16:40 -0.9 °C -7.5 °C 1013.4 hPa SW 3.2 km/h 19.3 km/h 61% 0 mm
16:45 -0.9 °C -7.3 °C 1013.4 hPa West 11.3 km/h 22.5 km/h 62% 0 mm
16:50 -0.9 °C -7.5 °C 1013.4 hPa West 9.7 km/h 24.1 km/h 61% 0 mm
16:55 -1 °C -7.6 °C 1013.4 hPa WSW 3.2 km/h 22.5 km/h 61% 0 mm
17:00 -1.1 °C -7.6 °C 1013.8 hPa WSW 9.7 km/h 22.5 km/h 61% 0 mm
17:05 -1.1 °C -7.6 °C 1013.8 hPa West 9.7 km/h 20.9 km/h 61% 0 mm
17:10 -1.1 °C -7.8 °C 1013.8 hPa West 4.8 km/h 24.1 km/h 60% 0 mm
17:15 -1.1 °C -7.6 °C 1013.8 hPa WNW 17.7 km/h 17.7 km/h 61% 0 mm
17:20 -1.1 °C -7.8 °C 1013.8 hPa West 11.3 km/h 29 km/h 60% 0 mm
17:25 -1.1 °C -7.9 °C 1014.1 hPa West 12.9 km/h 29 km/h 60% 0 mm
17:30 -1.2 °C -7.9 °C 1014.1 hPa West 12.9 km/h 25.7 km/h 60% 0 mm
17:40 -1.3 °C -8.1 °C 1014.1 hPa West 11.3 km/h 25.7 km/h 60% 0 mm
17:45 -1.3 °C -8.1 °C 1014.1 hPa WNW 12.9 km/h 24.1 km/h 60% 0 mm
17:55 -1.4 °C -7.7 °C 1014.1 hPa WSW 9.7 km/h 14.5 km/h 62% 0 mm
19:55 -2.4 °C -8.3 °C 1015.8 hPa West 6.4 km/h 19.3 km/h 64% 0 mm
20:00 -2.4 °C -8.3 °C 1015.8 hPa West 6.4 km/h 20.9 km/h 64% 0 mm
20:05 -2.6 °C -8.4 °C 1015.8 hPa West 16.1 km/h 22.5 km/h 64% 0 mm
20:10 -2.6 °C -8.3 °C 1015.8 hPa WSW 16.1 km/h 22.5 km/h 65% 0 mm
20:15 -2.7 °C -8.3 °C 1015.8 hPa West 11.3 km/h 22.5 km/h 65% 0 mm
20:35 -2.9 °C -8.3 °C 1015.8 hPa West 12.9 km/h 20.9 km/h 66% 0 mm
20:40 -2.9 °C -8.3 °C 1015.8 hPa WNW 12.9 km/h 19.3 km/h 66% 0 mm
20:45 -2.9 °C -8.6 °C 1015.8 hPa WNW 27.4 km/h 27.4 km/h 65% 0 mm
20:50 -2.9 °C -8.4 °C 1015.8 hPa West 9.7 km/h 27.4 km/h 66% 0 mm
21:05 -3 °C -8.7 °C 1016.1 hPa WSW 6.4 km/h 19.3 km/h 65% 0 mm
21:10 -3 °C -8.7 °C 1016.1 hPa West 11.3 km/h 22.5 km/h 65% 0 mm
21:15 -3.1 °C -8.7 °C 1016.1 hPa West 14.5 km/h 19.3 km/h 65% 0 mm
21:20 -3.1 °C -8.7 °C 1016.1 hPa WNW 8 km/h 20.9 km/h 65% 0 mm
21:25 -3.1 °C -8.7 °C 1016.1 hPa WNW 11.3 km/h 22.5 km/h 65% 0 mm
21:30 -3.1 °C -8.9 °C 1016.1 hPa WNW 11.3 km/h 22.5 km/h 64% 0 mm
21:35 -3.1 °C -8.9 °C 1016.1 hPa WNW 9.7 km/h 19.3 km/h 64% 0 mm
21:45 -2.9 °C -9 °C 1016.1 hPa West 9.7 km/h 20.9 km/h 63% 0 mm
21:50 -2.8 °C -9.1 °C 1016.1 hPa West 8 km/h 14.5 km/h 62% 0 mm
21:55 -2.6 °C -9.3 °C 1016.1 hPa WNW 12.9 km/h 24.1 km/h 60% 0 mm
22:00 -2.6 °C -9.3 °C 1015.8 hPa West 11.3 km/h 24.1 km/h 60% 0 mm
22:10 -2.6 °C -9.5 °C 1015.8 hPa West 12.9 km/h 22.5 km/h 59% 0 mm
22:15 -2.6 °C -9.6 °C 1016.1 hPa West 16.1 km/h 16.1 km/h 59% 0 mm
22:25 -2.6 °C -9.5 °C 1015.8 hPa West 8 km/h 20.9 km/h 59% 0 mm
22:30 -2.6 °C -9.5 °C 1015.8 hPa West 17.7 km/h 19.3 km/h 59% 0 mm
22:40 -2.7 °C -9.8 °C 1015.8 hPa West 11.3 km/h 24.1 km/h 58% 0 mm
22:55 -2.5 °C -9.9 °C 1015.5 hPa West 11.3 km/h 22.5 km/h 57% 0 mm
23:00 -2.4 °C -9.8 °C 1015.8 hPa West 9.7 km/h 19.3 km/h 57% 0 mm
23:05 -2.4 °C -9.8 °C 1015.8 hPa West 4.8 km/h 17.7 km/h 57% 0 mm
23:15 -2.3 °C -9.9 °C 1015.8 hPa WNW 14.5 km/h 20.9 km/h 56% 0 mm
23:30 -2.2 °C -9.8 °C 1015.8 hPa West 12.9 km/h 16.1 km/h 56% 0 mm
23:35 -2.2 °C -9.8 °C 1015.5 hPa West 3.2 km/h 16.1 km/h 56% 0 mm
23:40 -2.2 °C -9.8 °C 1015.5 hPa West 8 km/h 17.7 km/h 56% 0 mm
23:45 -2.2 °C -9.8 °C 1015.5 hPa West 6.4 km/h 17.7 km/h 56% 0 mm
23:50 -2.2 °C -9.8 °C 1015.5 hPa West 8 km/h 16.1 km/h 56% 0 mm
23:55 -2.1 °C -9.7 °C 1015.5 hPa West 8 km/h 16.1 km/h 56% 0 mm
Buffalo, New York, USA
Compliments of Weather Underground - 2 mb